ANIK G1

Last updated on Tue Sep 22 2026 00:03:12 GMT+0000 (Coordinated Universal Time)

1 39127U 13014A 26264.48716470 .00000000 00000+0 00000+0 0 9996 2 39127 0.0246 160.2657 0002982 32.0334 236.1503 1.00269844 49219
UTC large
Height (km)
Speed (km/s)
/
Latitude / Longitude
Inclination (degrees)
Orbital Period (minutes)
Azimuth
Elevation
Range (km)
Doppler Factor

Next 0 passes for location: London (51.5072 / 0.1276)

No passes found over London.
ANIK G1